Location: Dos Palmas
(32.4468°N, 116.8732°W)
Time: 05:38:06
(UTC+00:00)

Cosmos 1726 - Pass Details

Date: 20 June 2021
Orbit: 480 x 496 km, 82.5° (Epoch: 29 July)

Event Time Altitude Azimuth Distance (km) Brightness Sun altitude
Rises 03:21:24 0° 13° (NNE) 2,544 6.0 -5.2°
Reaches altitude 10° 03:24:04 10° 34° (NE) 1,662 4.8 -5.6°
Maximum altitude 03:26:32 17° 77° (ENE) 1,275 3.8 -6.1°
Drops below altitude 10° 03:28:59 10° 120° (ESE) 1,658 4.1 -6.5°
Enters shadow 03:29:26 - 125° (SE) 1,788 4.2 -6.6°
